Date String (YYYY-MM-DD hh:mm:ss) UTC,Instrument flags,absolute air pressure of the measurement (hPa),sample flow rate (lpm),inlet stack bypass flow (lpm),air temperature of the measurement (°C),ambient temperature measured by the external sensor (°C),aerosol sample conditioner tube jacket temperature (°C),OPC LED temperature (°C),internal box temperature (°C),relative humidity of the measurement (%),span deviation,mass concentration of particles derived from Lorenz-Mie calculation of OPC scattering (μg/m³),mass concentration of particles derived from Lorenz-Mie calculation of OPC scattering (μg/m³),mass concentration of particles derived from Lorenz-Mie calculation of OPC scattering (μg/m³)
DateTimeUTC,F1_M11,P_M11,Q1_M11,Q2_M11,T1_M11,T2_M11,T3_M11,T4_M11,T5_M11,U1_M11,ZSPAN_M11,X0_M11,X2_M11,X1_M11
2023-10-27 09:00:00,SystemResetWarning,0832.6,5.00,000.00,024.6,022.9,000.0,033.3,026.1,17.8,0000.0,0009.86,0004.92,0004.17
2023-10-27 09:01:00,SystemResetWarning,0832.6,5.00,000.00,024.6,022.9,000.0,033.3,026.1,17.8,0000.0,0010.05,0004.85,0004.14
2023-10-27 09:02:00,SystemResetWarning,0832.6,5.01,000.00,024.6,022.8,000.0,033.2,026.1,17.8,0000.0,0009.79,0004.79,0004.12
2023-10-27 09:03:00,SystemResetWarning,0832.7,5.01,000.00,024.5,022.8,000.0,033.2,026.0,17.7,0000.0,0010.01,0004.72,0004.08
2023-10-27 09:04:00,SystemResetWarning,0832.7,4.99,000.00,024.5,022.8,000.0,033.2,026.0,17.7,0000.0,0009.75,0004.64,0004.04
2023-10-27 09:05:00,SystemResetWarning,0832.6,4.99,000.00,024.5,022.8,000.0,033.2,026.0,17.6,0000.0,0009.86,0004.55,0004.02
2023-10-27 09:06:00,SystemResetWarning,0832.6,5.01,000.00,024.5,022.8,000.0,033.2,026.0,17.6,0000.0,0009.87,0004.47,0003.98
2023-10-27 09:07:00,SystemResetWarning,0832.6,5.01,000.00,024.5,022.8,000.0,033.2,026.0,17.5,0000.0,0009.63,0004.42,0003.96
2023-10-27 09:08:00,SystemResetWarning,0832.7,5.00,000.00,024.5,022.8,000.0,033.1,026.0,17.5,0000.0,0010.19,0004.42,0003.96
2023-10-27 09:09:00,SystemResetWarning,0832.6,5.01,000.00,024.4,022.9,000.0,033.1,026.0,17.5,0000.0,0009.78,0004.40,0003.95
2023-10-27 09:10:00,SystemResetWarning,0832.7,4.99,000.00,024.4,022.9,000.0,033.1,026.0,17.5,0000.0,0009.42,0004.37,0003.94
2023-10-27 09:11:00,SystemResetWarning,0832.7,4.99,000.00,024.4,022.9,000.0,033.1,025.9,17.5,0000.0,0009.50,0004.35,0003.95
2023-10-27 09:12:00,SystemResetWarning,0832.7,5.00,000.00,024.4,022.7,000.0,033.0,025.8,17.5,0000.0,0010.01,0004.37,0003.96
2023-10-27 09:13:00,SystemResetWarning,0832.7,5.01,000.00,024.3,022.6,000.0,033.0,025.7,17.6,0000.0,0009.79,0004.41,0003.97
2023-10-27 09:14:00,SystemResetWarning,0833.0,5.01,000.00,024.3,022.5,000.0,033.0,025.7,17.6,0000.0,0010.11,0004.46,0003.99
2023-10-27 09:15:00,SystemResetWarning,0832.8,5.00,000.00,024.2,022.4,000.0,033.0,025.6,17.6,0000.2,0010.15,0004.54,0004.01
2023-10-27 09:16:00,SystemResetWarning,0832.8,4.99,000.00,024.2,022.4,000.0,032.9,025.6,17.7,0001.0,0010.13,0004.60,0004.03
2023-10-27 09:17:00,SystemResetWarning,0832.8,4.99,000.00,024.2,022.4,000.0,032.9,025.6,17.7,0000.0,0010.14,0004.65,0004.06
2023-10-27 09:18:00,SystemResetWarning,0832.8,5.00,000.00,024.1,022.3,000.0,032.9,025.6,17.7,0000.0,0010.36,0004.70,0004.07
2023-10-27 09:19:00,SystemResetWarning,0832.7,5.00,000.00,024.1,022.3,000.0,032.9,025.6,17.8,0000.0,0009.98,0004.74,0004.09
2023-10-27 09:20:00,SystemResetWarning,0832.7,5.00,000.00,024.1,022.3,000.0,032.8,025.6,17.7,0000.0,0009.89,0004.81,0004.12
2023-10-27 09:21:00,SystemResetWarning,0832.7,5.00,000.00,024.1,022.4,000.0,032.8,025.6,17.7,0000.0,0010.14,0004.90,0004.15
2023-10-27 09:22:00,SystemResetWarning,0832.8,4.99,000.00,024.1,022.4,000.0,032.8,025.6,17.7,0000.0,0010.30,0004.94,0004.18
2023-10-27 09:23:00,SystemResetWarning,0832.8,4.99,000.00,024.1,022.4,000.0,032.8,025.5,17.6,0000.0,0009.36,0004.92,0004.19
2023-10-27 09:24:00,SystemResetWarning,0833.0,5.00,000.00,024.0,022.4,000.0,032.7,025.5,17.5,0000.0,0009.21,0004.91,0004.20
2023-10-27 09:25:00,SystemResetWarning,0832.9,5.00,000.00,024.0,022.4,000.0,032.7,025.5,17.4,0000.0,0008.89,0004.94,0004.21
2023-10-27 09:26:00,SystemResetWarning,0832.8,5.00,000.00,024.0,022.4,000.0,032.7,025.5,17.3,0000.0,0008.66,0004.95,0004.23
2023-10-27 09:27:00,SystemResetWarning,0832.8,5.00,000.00,024.0,022.4,000.0,032.7,025.5,17.1,0000.0,0008.74,0004.95,0004.24
2023-10-27 09:28:00,SystemResetWarning,0832.9,5.00,000.00,024.0,022.4,000.0,032.7,025.5,17.0,0000.0,0008.69,0004.98,0004.26
2023-10-27 09:29:00,SystemResetWarning,0833.0,5.00,000.00,024.0,022.4,000.0,032.7,025.5,17.0,-000.3,0008.48,0004.98,0004.28
2023-10-27 09:30:00,SystemResetWarning,0833.0,5.01,000.00,024.0,022.4,000.0,032.6,025.5,16.9,-000.7,0008.49,0005.01,0004.29
2023-10-27 09:31:00,SystemResetWarning,0833.0,4.99,000.00,024.0,022.4,000.0,032.6,025.5,16.9,-001.0,0008.43,0005.02,0004.32
2023-10-27 09:32:00,SystemResetWarning,0832.9,4.99,000.00,024.0,022.4,000.0,032.6,025.5,16.9,-000.5,0008.24,0004.99,0004.35
2023-10-27 09:33:00,SystemResetWarning,0833.4,4.99,000.00,024.0,022.3,000.0,032.6,025.5,16.8,-000.2,0008.06,0004.98,0004.36
2023-10-27 09:34:00,SystemResetWarning,0833.4,5.00,000.00,023.9,022.3,000.0,032.6,025.4,16.8,0000.5,0008.14,0005.02,0004.40
2023-10-27 09:35:00,SystemResetWarning,0833.1,5.00,000.00,023.9,022.3,000.0,032.6,025.5,16.8,0001.2,0008.15,0005.05,0004.44
2023-10-27 09:36:00,SystemResetWarning,0832.9,5.00,000.00,023.9,022.3,000.0,032.6,025.5,16.7,0001.1,0008.19,0005.09,0004.48
2023-10-27 09:37:00,SystemResetWarning,0833.0,5.00,000.00,023.9,022.3,000.0,032.5,025.4,16.8,0001.2,0008.23,0005.09,0004.51
2023-10-27 09:38:00,SystemResetWarning,0832.9,5.01,000.00,023.9,022.3,000.0,032.5,025.4,16.8,0000.5,0008.11,0005.11,0004.53
2023-10-27 09:39:00,SystemResetWarning,0833.3,5.00,000.00,023.9,022.4,000.0,032.5,025.4,16.7,0000.6,0007.97,0005.10,0004.55
2023-10-27 09:40:00,SystemResetWarning,0833.4,5.00,000.00,023.9,022.4,000.0,032.5,025.4,16.7,0000.6,0007.95,0005.12,0004.57
2023-10-27 09:41:00,SystemResetWarning,0833.1,4.99,000.00,023.9,022.3,000.0,032.5,025.4,16.7,0000.2,0007.84,0005.08,0004.59
2023-10-27 09:42:00,SystemResetWarning,0832.9,5.00,000.00,023.9,022.4,000.0,032.5,025.4,16.7,0000.2,0007.83,0005.07,0004.59
2023-10-27 09:43:00,SystemResetWarning,0833.0,5.00,000.00,023.9,022.4,000.0,032.5,025.4,16.7,0000.2,0007.78,0005.06,0004.61
2023-10-27 09:44:00,SystemResetWarning,0832.9,5.00,000.00,023.9,022.3,000.0,032.5,025.3,16.7,0000.0,0007.79,0005.06,0004.62
2023-10-27 09:45:00,SystemResetWarning,0832.9,5.00,000.00,023.8,022.3,000.0,032.4,025.3,16.6,-000.0,0007.66,0005.04,0004.62
2023-10-27 09:46:00,SystemResetWarning,0833.0,5.00,000.00,023.8,022.2,000.0,032.4,025.2,16.6,-000.4,0007.63,0005.02,0004.61
2023-10-27 09:47:00,SystemResetWarning,0833.2,5.00,000.00,023.8,022.2,000.0,032.4,025.2,16.6,-000.1,0007.55,0004.97,0004.59
2023-10-27 09:48:00,SystemResetWarning,0833.2,5.00,000.00,023.8,022.2,000.0,032.4,025.2,16.6,0000.2,0007.45,0004.95,0004.58
2023-10-27 09:49:00,SystemResetWarning,0833.0,5.00,000.00,023.7,022.1,000.0,032.4,025.2,16.5,0000.7,0007.50,0004.95,0004.57
2023-10-27 09:50:00,SystemResetWarning,0833.1,5.00,000.00,023.7,022.1,000.0,032.3,025.2,16.5,0000.9,0007.54,0004.95,0004.59
2023-10-27 09:51:00,SystemResetWarning,0833.2,5.00,000.00,023.7,022.1,000.0,032.3,025.2,16.4,0000.3,0007.52,0004.95,0004.60
2023-10-27 09:52:00,SystemResetWarning,0833.1,5.00,000.00,023.7,022.1,000.0,032.3,025.2,16.4,0000.7,0007.69,0004.98,0004.60
2023-10-27 09:53:00,SystemResetWarning,0833.1,5.00,000.00,023.7,022.1,000.0,032.3,025.1,16.4,0000.7,0007.83,0004.99,0004.60
2023-10-27 09:54:00,SystemResetWarning,0833.1,5.00,000.00,023.7,022.0,000.0,032.3,025.1,16.4,0000.5,0007.82,0004.98,0004.58
2023-10-27 09:55:00,SystemResetWarning,0833.4,5.00,000.00,023.6,022.0,000.0,032.3,025.1,16.4,0000.7,0007.81,0004.97,0004.58
2023-10-27 09:56:00,SystemResetWarning,0833.2,5.00,000.00,023.6,021.9,000.0,032.2,025.0,16.4,0000.6,0007.82,0004.97,0004.58
2023-10-27 09:57:00,SystemResetWarning,0833.3,5.00,000.00,023.5,021.9,000.0,032.2,025.0,16.3,0000.5,0007.83,0004.97,0004.58
2023-10-27 09:58:00,SystemResetWarning,0833.1,5.00,000.00,023.5,021.8,000.0,032.2,025.0,16.3,0000.6,0007.94,0005.02,0004.59
2023-10-27 09:59:00,SystemResetWarning,0833.2,5.00,000.00,023.5,021.8,000.0,032.2,025.0,16.2,0000.4,0007.98,0005.04,0004.63
